Regional Weather Roundup
Issued by NWS Albany, NY

Home | Current Version | Previous Version | Graphics & Text | Print | Product List | Glossary On
Versions: 1 2 3 4 5 6 7 8 9 10 11 12 13 14 15 16 17 18 19 20 21 22 23 24 25 26 27 28 29 30 31 32 33 34 35 36 37 38 39 40 41 42 43 44 45 46 47 48 49 50
000
ASUS41 KALY 221010
RWRALY

NEW YORK STATE HOURLY WEATHER ROUNDUP
NATIONAL WEATHER SERVICE ALBANY NY
600 AM EDT FRI JUL 22 2016

NOTE: "FAIR" INDICATES FEW OR NO CLOUDS BELOW 12,000 FEET WITH NO
SIGNIFICANT WEATHER AND/OR NO OBSTRUCTIONS TO VISIBILITY.

NYZ032-033-038>043-046>054-057>066-NYZ062>081-082-084-221100-
EAST


CITY           SKY/WX    TMP DP  RH WIND       PRES   REMARKS
ALBANY         MOCLDY    72  59  63 S12       29.88F
GLENS FALLS    PTCLDY    69  59  70 S7        29.86F
POUGHKEEPSIE   CLOUDY    71  63  75 N5        29.95R
NEWBURGH       PTCLDY    70  66  88 W6        29.98S
MONTGOMERY     CLOUDY    68  64  87 SW5       29.96S
WHITE PLAINS   CLEAR     73  66  78 VRB3      29.98F
ISLIP          CLOUDY    73  69  87 SW8       29.98F
NEW YORK CITY  MOCLDY    77  69  76 SW10      29.98F
CENTRAL PARK   CLEAR     75  67  76 W5        30.01F
$$

NYZ005>009-017-018-044>046-055-056-221100-
CENTRAL


CITY           SKY/WX    TMP DP  RH WIND       PRES   REMARKS
FULTON         CLOUDY    80  65  59 SW7       29.85S
SYRACUSE       CLOUDY    80  65  59 SW10      29.85S
ROME           CLOUDY    68  62  81 E7        29.87F
ELMIRA         CLOUDY    70  59  68 SW3       29.92F
BINGHAMTON     CLOUDY    71  57  61 SW8       29.96F
MONTICELLO     CLOUDY    61  57  88 CALM      30.01F
$$

NYZ026>034-041>043-087-221100-
NORTH


CITY           SKY/WX    TMP DP  RH WIND       PRES   REMARKS
WATERTOWN      PTCLDY    76  68  76 SW13      29.81S
FORT DRUM      NOT AVBL
MASSENA        CLEAR     74  63  68 SW10      29.75R
SARANAC LAKE   CLOUDY    69  61  75 SW10      29.84F
PLATTSBURGH    CLEAR     73  63  70 SE7       29.76S
$$

NYZ001>004-010>016-019>021-085-221100-
WEST


CITY           SKY/WX    TMP DP  RH WIND       PRES   REMARKS
NIAGARA FALLS  CLOUDY    78  69  73 SW15      29.87F
BUFFALO        CLOUDY    76  71  85 SW18G24   29.90S
DUNKIRK        LGT RAIN  74  71  91 SW15      29.93S FOG
JAMESTOWN      CLOUDY    72  64  78 SW9       29.98R
WELLSVILLE     CLEAR     71  64  78 SW13G20   30.00F
ROCHESTER      CLOUDY    78  68  71 SW10      29.86F
PENN YAN       PTCLDY    78  64  61 SW10      29.91S
$$

             KEY
       WCI = WIND CHILL INDEX
       VSB = VISIBILITY
       HX  = HEAT INDEX
$$



USA.gov is the U.S. government's official web portal to all federal, state and local government web resources and services.